| time (UTC) | temp F | wind direction | speed MPH | gust MPH | rain 1hr in | rain 24hr in | rain mn in | humidity % | barometer mb |
| 20260506221525 | 53 | 302 | 4.0 | 6.0 | 0.00 | 2.72 | 0.70 | 59 | 1014.2 |
| 20260506221017 | 53 | 277 | 4.0 | 7.0 | 0.00 | 2.73 | 0.70 | 58 | 1014.1 |
| 20260506220528 | 53 | 291 | 5.0 | 7.0 | 0.00 | 2.73 | 0.70 | 58 | 1014.1 |
| 20260506220019 | 53 | 322 | 4.0 | 7.0 | 0.00 | 2.73 | 0.70 | 58 | 1014.1 |
| 20260506215530 | 53 | 295 | 4.0 | 6.0 | 0.00 | 2.73 | 0.70 | 59 | 1014.1 |
| 20260506215022 | 53 | 324 | 2.0 | 3.0 | 0.00 | 2.74 | 0.70 | 60 | 1014.1 |
| 20260506214532 | 53 | 265 | 3.0 | 6.0 | 0.00 | 2.74 | 0.70 | 59 | 1014.1 |
| 20260506214024 | 53 | 280 | 3.0 | 5.0 | 0.00 | 2.74 | 0.70 | 58 | 1014.1 |
| 20260506213516 | 53 | 270 | 4.0 | 6.0 | 0.00 | 2.75 | 0.70 | 57 | 1013.8 |
| 20260506213026 | 53 | 257 | 5.0 | 7.0 | 0.00 | 2.76 | 0.70 | 58 | 1013.8 |
| 20260506212518 | 53 | 38 | 2.0 | 6.0 | 0.00 | 2.76 | 0.70 | 59 | 1013.8 |
| 20260506212028 | 53 | 273 | 4.0 | 7.0 | 0.00 | 2.78 | 0.70 | 57 | 1013.8 |
| 20260506211520 | 54 | 5 | 4.0 | 6.0 | 0.00 | 2.80 | 0.70 | 57 | 1013.8 |
| 20260506211031 | 54 | 289 | 4.0 | 7.0 | 0.00 | 2.83 | 0.70 | 58 | 1013.8 |
| 20260506210523 | 54 | 281 | 4.0 | 12.0 | 0.00 | 2.84 | 0.70 | 58 | 1013.8 |
| 20260506210033 | 54 | 284 | 4.0 | 7.0 | 0.00 | 2.85 | 0.70 | 58 | 1013.7 |
| 20260506205525 | 54 | 282 | 3.0 | 6.0 | 0.00 | 2.86 | 0.70 | 58 | 1013.7 |
| 20260506205017 | 53 | 276 | 3.0 | 5.0 | 0.00 | 2.87 | 0.70 | 59 | 1013.7 |
| 20260506204527 | 53 | 302 | 3.0 | 5.0 | 0.00 | 2.89 | 0.70 | 60 | 1013.7 |
| 20260506204019 | 53 | 281 | 4.0 | 7.0 | 0.00 | 2.92 | 0.70 | 58 | 1013.7 |
| 20260506203529 | 53 | 330 | 4.0 | 6.0 | 0.00 | 3.00 | 0.70 | 56 | 1013.7 |
| 20260506203022 | 53 | 309 | 3.0 | 5.0 | 0.00 | 3.08 | 0.70 | 57 | 1013.7 |
| 20260506202526 | 54 | 291 | 4.0 | 8.0 | 0.00 | 3.18 | 0.70 | 55 | 1013.6 |
| 20260506202024 | 54 | 282 | 6.0 | 9.0 | 0.00 | 3.20 | 0.70 | 56 | 1013.6 |
| 20260506201516 | 55 | 303 | 3.0 | 6.0 | 0.00 | 3.20 | 0.70 | 57 | 1013.6 |
| 20260506201020 | 55 | 321 | 4.0 | 7.0 | 0.00 | 3.20 | 0.70 | 55 | 1013.5 |
| 20260506200518 | 54 | 308 | 4.0 | 7.0 | 0.00 | 3.20 | 0.70 | 57 | 1013.5 |
| 20260506200017 | 54 | 288 | 5.0 | 8.0 | 0.00 | 3.20 | 0.70 | 58 | 1013.6 |
| 20260506195521 | 54 | 299 | 3.0 | 5.0 | 0.00 | 3.20 | 0.70 | 58 | 1013.7 |
| 20260506195031 | 54 | 280 | 4.0 | 6.0 | 0.00 | 3.20 | 0.70 | 58 | 1013.8 |
| 20260506194523 | 54 | 268 | 5.0 | 8.0 | 0.00 | 3.20 | 0.70 | 58 | 1013.8 |
| 20260506194015 | 54 | 294 | 4.0 | 8.0 | 0.00 | 3.20 | 0.70 | 59 | 1013.8 |
| 20260506193525 | 54 | 265 | 5.0 | 8.0 | 0.00 | 3.20 | 0.70 | 58 | 1013.8 |
| 20260506193017 | 54 | 277 | 4.0 | 6.0 | 0.00 | 3.20 | 0.70 | 57 | 1013.8 |
| 20260506192527 | 54 | 276 | 4.0 | 10.0 | 0.00 | 3.20 | 0.70 | 57 | 1013.7 |
| 20260506192019 | 54 | 270 | 4.0 | 6.0 | 0.00 | 3.20 | 0.70 | 58 | 1013.6 |
| 20260506191530 | 54 | 277 | 4.0 | 6.0 | 0.00 | 3.20 | 0.70 | 58 | 1013.6 |
| 20260506191022 | 54 | 280 | 5.0 | 9.0 | 0.00 | 3.20 | 0.70 | 58 | 1013.6 |
| 20260506190532 | 54 | 309 | 4.0 | 6.0 | 0.00 | 3.20 | 0.70 | 58 | 1013.6 |
| 20260506190024 | 54 | 293 | 5.0 | 7.0 | 0.00 | 3.20 | 0.70 | 58 | 1013.5 |
| 20260506185516 | 55 | 268 | 5.0 | 7.0 | 0.00 | 3.20 | 0.70 | 58 | 1013.5 |
| 20260506185026 | 55 | 246 | 6.0 | 8.0 | 0.00 | 3.20 | 0.70 | 58 | 1013.5 |
| 20260506184518 | 55 | 276 | 5.0 | 6.0 | 0.00 | 3.20 | 0.70 | 59 | 1013.5 |
| 20260506184028 | 55 | 253 | 1.0 | 5.0 | 0.00 | 3.21 | 0.70 | 61 | 1013.5 |
| 20260506183521 | 55 | 317 | 3.0 | 5.0 | 0.00 | 3.21 | 0.70 | 60 | 1013.5 |
| 20260506183030 | 54 | 226 | 2.0 | 3.0 | 0.00 | 3.21 | 0.70 | 60 | 1013.5 |
| 20260506182524 | 54 | 261 | 3.0 | 6.0 | 0.00 | 3.21 | 0.70 | 61 | 1013.6 |
| 20260506182033 | 54 | 236 | 2.0 | 4.0 | 0.00 | 3.21 | 0.70 | 61 | 1013.7 |
| 20260506181525 | 54 | 277 | 4.0 | 6.0 | 0.00 | 3.21 | 0.70 | 61 | 1013.7 |
| 20260506181017 | 54 | 72 | 3.0 | 6.0 | 0.00 | 3.21 | 0.70 | 63 | 1013.8 |
| 20260506180527 | 54 | 114 | 2.0 | 3.0 | 0.00 | 3.21 | 0.70 | 61 | 1013.8 |
| 20260506180020 | 55 | 313 | 3.0 | 5.0 | 0.00 | 3.21 | 0.70 | 59 | 1013.7 |
| 20260506175530 | 55 | 320 | 4.0 | 9.0 | 0.00 | 3.21 | 0.70 | 59 | 1013.6 |
| 20260506175022 | 55 | 284 | 4.0 | 6.0 | 0.00 | 3.21 | 0.70 | 58 | 1013.6 |
| 20260506174526 | 55 | 185 | 2.0 | 4.0 | 0.00 | 3.21 | 0.70 | 60 | 1013.5 |
| 20260506174024 | 56 | 284 | 5.0 | 8.0 | 0.00 | 3.21 | 0.70 | 57 | 1013.5 |
| 20260506173516 | 57 | 279 | 7.0 | 11.0 | 0.00 | 3.21 | 0.70 | 55 | 1013.4 |
| 20260506173020 | 57 | 273 | 5.0 | 9.0 | 0.00 | 3.21 | 0.70 | 57 | 1013.4 |
| 20260506172518 | 57 | 283 | 5.0 | 9.0 | 0.00 | 3.21 | 0.70 | 56 | 1013.5 |
| 20260506172016 | 58 | 297 | 5.0 | 9.0 | 0.00 | 3.21 | 0.70 | 57 | 1013.6 |
| 20260506171520 | 58 | 279 | 7.0 | 9.0 | 0.00 | 3.21 | 0.70 | 57 | 1013.6 |
| 20260506171031 | 59 | 273 | 7.0 | 13.0 | 0.00 | 3.21 | 0.70 | 57 | 1013.7 |
| 20260506170523 | 59 | 14 | 5.0 | 9.0 | 0.00 | 3.21 | 0.70 | 56 | 1013.7 |
| 20260506170015 | 60 | 281 | 6.0 | 8.0 | 0.00 | 3.21 | 0.70 | 57 | 1013.5 |
| 20260506165525 | 59 | 248 | 4.0 | 8.0 | 0.00 | 3.21 | 0.70 | 57 | 1013.5 |
| 20260506165017 | 57 | 147 | 3.0 | 6.0 | 0.00 | 3.21 | 0.70 | 60 | 1013.4 |
| 20260506164528 | 57 | 242 | 4.0 | 8.0 | 0.00 | 3.21 | 0.70 | 58 | 1013.4 |
| 20260506164020 | 58 | 245 | 5.0 | 11.0 | 0.00 | 3.21 | 0.70 | 59 | 1013.4 |
| 20260506163530 | 57 | 266 | 4.0 | 7.0 | 0.00 | 3.21 | 0.70 | 60 | 1013.5 |
| 20260506163022 | 56 | 261 | 4.0 | 7.0 | 0.00 | 3.21 | 0.70 | 63 | 1013.5 |
| 20260506162532 | 55 | 248 | 4.0 | 7.0 | 0.00 | 3.21 | 0.70 | 61 | 1013.4 |
| 20260506162024 | 55 | 116 | 4.0 | 7.0 | 0.00 | 3.21 | 0.70 | 61 | 1013.3 |
| 20260506161517 | 55 | 123 | 3.0 | 5.0 | 0.00 | 3.21 | 0.70 | 63 | 1013.3 |
| 20260506161027 | 55 | 348 | 4.0 | 7.0 | 0.00 | 3.21 | 0.70 | 65 | 1013.5 |
| 20260506160520 | 55 | 251 | 4.0 | 9.0 | 0.00 | 3.21 | 0.70 | 68 | 1013.5 |
| 20260506160029 | 55 | 117 | 4.0 | 9.0 | 0.00 | 3.21 | 0.70 | 68 | 1013.5 |
| 20260506155523 | 55 | 237 | 4.0 | 8.0 | 0.00 | 3.21 | 0.70 | 67 | 1013.5 |
| 20260506155032 | 56 | 282 | 7.0 | 10.0 | 0.00 | 3.21 | 0.70 | 66 | 1013.5 |
| 20260506154524 | 56 | 304 | 5.0 | 8.0 | 0.00 | 3.21 | 0.70 | 70 | 1013.4 |
| 20260506154016 | 55 | 26 | 3.0 | 6.0 | 0.00 | 3.21 | 0.70 | 69 | 1013.4 |
| 20260506153526 | 54 | 346 | 3.0 | 6.0 | 0.00 | 3.21 | 0.70 | 70 | 1013.1 |
| 20260506153018 | 55 | 273 | 5.0 | 7.0 | 0.00 | 3.21 | 0.70 | 72 | 1013.1 |
| 20260506152528 | 53 | 254 | 4.0 | 7.0 | 0.00 | 3.21 | 0.70 | 75 | 1012.9 |
| 20260506152020 | 53 | 296 | 5.0 | 8.0 | 0.00 | 3.21 | 0.70 | 76 | 1012.8 |
| 20260506151530 | 52 | 287 | 5.0 | 8.0 | 0.00 | 3.21 | 0.70 | 76 | 1012.7 |
| 20260506151023 | 52 | 292 | 4.0 | 11.0 | 0.00 | 3.22 | 0.70 | 80 | 1012.6 |
| 20260506150527 | 51 | 267 | 2.0 | 5.0 | 0.00 | 3.22 | 0.70 | 82 | 1012.6 |
| 20260506150025 | 50 | 275 | 4.0 | 8.0 | 0.00 | 3.22 | 0.70 | 82 | 1012.8 |
| 20260506145517 | 50 | 309 | 4.0 | 7.0 | 0.00 | 3.22 | 0.70 | 85 | 1012.9 |
| 20260506145021 | 49 | 288 | 3.0 | 5.0 | 0.00 | 3.22 | 0.70 | 86 | 1012.7 |
| 20260506144520 | 49 | 293 | 5.0 | 7.0 | 0.00 | 3.22 | 0.70 | 85 | 1012.6 |
| 20260506144019 | 49 | 277 | 3.0 | 7.0 | 0.00 | 3.22 | 0.70 | 84 | 1012.6 |
| 20260506143516 | 49 | 253 | 4.0 | 7.0 | 0.00 | 3.22 | 0.70 | 83 | 1012.6 |
| 20260506143032 | 49 | 276 | 5.0 | 7.0 | 0.00 | 3.22 | 0.70 | 85 | 1012.6 |
| 20260506142524 | 48 | 324 | 4.0 | 8.0 | 0.00 | 3.22 | 0.70 | 87 | 1012.6 |
| 20260506142016 | 49 | 301 | 4.0 | 7.0 | 0.00 | 3.22 | 0.70 | 86 | 1012.6 |
| 20260506141526 | 49 | 271 | 3.0 | 6.0 | 0.00 | 3.22 | 0.70 | 84 | 1012.4 |
| 20260506141019 | 49 | 294 | 4.0 | 7.0 | 0.00 | 3.22 | 0.70 | 86 | 1012.1 |
| 20260506140529 | 48 | 280 | 4.0 | 6.0 | 0.00 | 3.22 | 0.70 | 85 | 1012.1 |
| 20260506140021 | 48 | 298 | 4.0 | 7.0 | 0.00 | 3.22 | 0.70 | 88 | 1012.1 |
| 20260506135531 | 48 | 263 | 4.0 | 7.0 | 0.00 | 3.22 | 0.70 | 87 | 1012.1 |
| 20260506135023 | 47 | 252 | 3.0 | 6.0 | 0.00 | 3.22 | 0.70 | 87 | 1012.1 |
| 20260506134515 | 47 | 266 | 2.0 | 5.0 | 0.00 | 3.22 | 0.70 | 89 | 1012.1 |
| 20260506134025 | 46 | 351 | 3.0 | 5.0 | 0.00 | 3.22 | 0.70 | 92 | 1012.1 |
| 20260506133517 | 46 | 29 | 3.0 | 6.0 | 0.00 | 3.22 | 0.70 | 94 | 1012.1 |
| 20260506133027 | 46 | 280 | 3.0 | 4.0 | 0.00 | 3.22 | 0.70 | 93 | 1012.1 |
| 20260506132519 | 46 | 298 | 3.0 | 5.0 | 0.00 | 3.22 | 0.70 | 94 | 1012.2 |
| 20260506132029 | 46 | 298 | 4.0 | 8.0 | 0.00 | 3.22 | 0.70 | 95 | 1012.3 |
| 20260506131522 | 45 | 275 | 2.0 | 4.0 | 0.00 | 3.22 | 0.70 | 97 | 1012.2 |
| 20260506131032 | 45 | 289 | 2.0 | 4.0 | 0.00 | 3.22 | 0.70 | 99 | 1012.1 |
| 20260506130524 | 45 | 310 | 1.0 | 4.0 | 0.00 | 3.22 | 0.70 | 99 | 1012.1 |
| 20260506130016 | 45 | 277 | 2.0 | 3.0 | 0.00 | 3.22 | 0.70 | 99 | 1012.0 |
| 20260506125526 | 44 | 272 | 1.0 | 2.0 | 0.00 | 3.22 | 0.70 | 99 | 1011.9 |
| 20260506125019 | 44 | 285 | 2.0 | 4.0 | 0.00 | 3.22 | 0.70 | 99 | 1011.8 |
| 20260506124529 | 44 | 270 | 1.0 | 4.0 | 0.00 | 3.22 | 0.70 | 99 | 1011.6 |
| 20260506124017 | 44 | 274 | 2.0 | 3.0 | 0.00 | 3.22 | 0.70 | 99 | 1011.6 |
| 20260506123526 | 44 | 259 | 1.0 | 2.0 | 0.00 | 3.22 | 0.70 | 99 | 1011.3 |
| 20260506123017 | 44 | 242 | 1.0 | 3.0 | 0.00 | 3.22 | 0.70 | 99 | 1011.3 |
| 20260506122527 | 43 | 255 | 1.0 | 5.0 | 0.00 | 3.22 | 0.70 | 99 | 1011.3 |
| 20260506122019 | 43 | 225 | 0.0 | 2.0 | 0.00 | 3.22 | 0.70 | 99 | 1011.3 |
| 20260506121523 | 43 | 307 | 1.0 | 3.0 | 0.00 | 3.22 | 0.70 | 99 | 1011.3 |
| 20260506121021 | 42 | 209 | 1.0 | 3.0 | 0.00 | 3.22 | 0.70 | 99 | 1011.2 |
| 20260506120520 | 42 | 288 | 1.0 | 4.0 | 0.00 | 3.22 | 0.70 | 99 | 1011.2 |
| 20260506120017 | 42 | 270 | 2.0 | 4.0 | 0.00 | 3.22 | 0.70 | 99 | 1011.1 |
| 20260506115517 | 42 | 90 | 1.0 | 2.0 | 0.00 | 3.22 | 0.70 | 99 | 1011.0 |
| 20260506115032 | 42 | 70 | 1.0 | 3.0 | 0.00 | 3.22 | 0.70 | 99 | 1010.8 |
| 20260506114525 | 42 | 298 | 1.0 | 3.0 | 0.00 | 3.22 | 0.70 | 99 | 1010.7 |
| 20260506114016 | 42 | 278 | 1.0 | 4.0 | 0.00 | 3.22 | 0.70 | 99 | 1010.7 |
| 20260506113527 | 42 | 259 | 1.0 | 3.0 | 0.00 | 3.22 | 0.70 | 99 | 1010.3 |
| 20260506113019 | 42 | 0.0 | 1.0 | 0.00 | 3.22 | 0.70 | 99 | 1010.3 | |
| 20260506112529 | 42 | 113 | 0.0 | 2.0 | 0.00 | 3.22 | 0.70 | 99 | 1010.1 |
| 20260506112021 | 42 | 252 | 2.0 | 3.0 | 0.00 | 3.22 | 0.70 | 99 | 1010.0 |
| 20260506111531 | 42 | 203 | 0.0 | 2.0 | 0.00 | 3.22 | 0.70 | 99 | 1010.0 |
| 20260506111023 | 42 | 236 | 0.0 | 3.0 | 0.00 | 3.22 | 0.70 | 99 | 1010.0 |
| 20260506110515 | 42 | 0.0 | 0.0 | 0.00 | 3.22 | 0.70 | 99 | 1010.0 | |
| 20260506110027 | 42 | 0.0 | 0.0 | 0.00 | 3.22 | 0.70 | 99 | 1010.0 | |
| 20260506105518 | 42 | 0.0 | 0.0 | 0.00 | 3.22 | 0.70 | 99 | 1010.0 | |
| 20260506105028 | 42 | 98 | 1.0 | 3.0 | 0.00 | 3.22 | 0.70 | 99 | 1010.1 |
| 20260506104520 | 42 | 90 | 0.0 | 2.0 | 0.00 | 3.22 | 0.70 | 99 | 1010.2 |
| 20260506104030 | 42 | 90 | 1.0 | 3.0 | 0.00 | 3.22 | 0.70 | 99 | 1010.2 |
| 20260506103523 | 42 | 287 | 1.0 | 3.0 | 0.00 | 3.22 | 0.70 | 99 | 1009.7 |
| 20260506103033 | 42 | 0.0 | 2.0 | 0.00 | 3.22 | 0.70 | 99 | 1009.7 | |
| 20260506102525 | 42 | 212 | 0.0 | 3.0 | 0.00 | 3.22 | 0.70 | 99 | 1009.5 |
| 20260506102017 | 42 | 291 | 2.0 | 5.0 | 0.00 | 3.22 | 0.70 | 99 | 1009.3 |
| 20260506101527 | 42 | 276 | 1.0 | 2.0 | 0.00 | 3.22 | 0.70 | 99 | 1009.4 |
| 20260506101019 | 42 | 174 | 0.0 | 2.0 | 0.00 | 3.22 | 0.70 | 99 | 1009.5 |
| 20260506100529 | 42 | 113 | 0.0 | 2.0 | 0.00 | 3.22 | 0.70 | 99 | 1009.5 |
| 20260506100021 | 42 | 184 | 2.0 | 3.0 | 0.00 | 3.22 | 0.70 | 99 | 1009.5 |
| 20260506095531 | 42 | 227 | 0.0 | 3.0 | 0.00 | 3.22 | 0.70 | 99 | 1009.5 |
| 20260506095023 | 42 | 172 | 1.0 | 4.0 | 0.00 | 3.22 | 0.70 | 99 | 1009.4 |
| 20260506094527 | 42 | 78 | 1.0 | 4.0 | 0.00 | 3.22 | 0.70 | 99 | 1009.3 |
| 20260506094024 | 42 | 83 | 1.0 | 2.0 | 0.00 | 3.23 | 0.70 | 99 | 1009.3 |
| 20260506093516 | 42 | 286 | 2.0 | 4.0 | 0.00 | 3.24 | 0.70 | 99 | 1008.6 |
| 20260506093019 | 42 | 270 | 1.0 | 3.0 | 0.01 | 3.24 | 0.70 | 99 | 1008.6 |
| 20260506092518 | 42 | 168 | 1.0 | 4.0 | 0.01 | 3.25 | 0.70 | 99 | 1009.0 |
| 20260506092017 | 42 | 144 | 1.0 | 2.0 | 0.02 | 3.26 | 0.70 | 99 | 1009.3 |
| 20260506091520 | 42 | 273 | 2.0 | 4.0 | 0.02 | 3.28 | 0.70 | 99 | 1009.1 |
| 20260506091030 | 42 | 257 | 2.0 | 4.0 | 0.02 | 3.30 | 0.70 | 99 | 1008.7 |
| 20260506090523 | 42 | 270 | 0.0 | 2.0 | 0.03 | 3.33 | 0.70 | 99 | 1008.7 |
| 20260506090033 | 42 | 180 | 0.0 | 3.0 | 0.03 | 3.34 | 0.70 | 99 | 1008.2 |
| 20260506085525 | 42 | 90 | 1.0 | 3.0 | 0.04 | 3.34 | 0.70 | 99 | 1008.1 |
| 20260506085017 | 42 | 107 | 3.0 | 3.0 | 0.04 | 3.34 | 0.70 | 99 | 1008.6 |
| 20260506084527 | 42 | 111 | 3.0 | 3.0 | 0.04 | 3.34 | 0.70 | 99 | 1008.9 |
| 20260506084020 | 42 | 128 | 1.0 | 2.0 | 0.04 | 3.34 | 0.70 | 99 | 1008.9 |
| 20260506083529 | 42 | 220 | 0.0 | 2.0 | 0.04 | 3.34 | 0.70 | 99 | 1009.1 |
| 20260506083023 | 42 | 18 | 1.0 | 3.0 | 0.03 | 3.33 | 0.69 | 99 | 1009.1 |
| 20260506082532 | 42 | 90 | 1.0 | 3.0 | 0.03 | 3.33 | 0.69 | 99 | 1009.0 |
| 20260506082024 | 42 | 0.0 | 0.0 | 0.02 | 3.32 | 0.68 | 99 | 1008.9 | |
| 20260506081516 | 42 | 158 | 0.0 | 2.0 | 0.02 | 3.32 | 0.68 | 99 | 1009.0 |
| 20260506081026 | 42 | 113 | 1.0 | 3.0 | 0.02 | 3.32 | 0.68 | 99 | 1009.0 |
| 20260506080518 | 42 | 147 | 2.0 | 4.0 | 0.02 | 3.31 | 0.67 | 99 | 1009.0 |
| 20260506073525 | 43 | 0.0 | 3.0 | 0.08 | 3.30 | 0.66 | 99 | 1008.6 | |
| 20260506073017 | 43 | 72 | 2.0 | 6.0 | 0.10 | 3.30 | 0.66 | 99 | 1008.6 |
| 20260506072527 | 43 | 99 | 3.0 | 5.0 | 0.13 | 3.30 | 0.66 | 99 | 1008.7 |
| 20260506072019 | 43 | 153 | 2.0 | 4.0 | 0.14 | 3.30 | 0.66 | 99 | 1008.8 |
| 20260506071529 | 43 | 121 | 2.0 | 3.0 | 0.15 | 3.30 | 0.66 | 99 | 1008.8 |
| 20260506071021 | 43 | 113 | 2.0 | 4.0 | 0.16 | 3.30 | 0.66 | 99 | 1008.9 |
| 20260506070526 | 43 | 103 | 1.0 | 4.0 | 0.15 | 3.29 | 0.65 | 99 | 1008.9 |
| 20260506062015 | 43 | 328 | 2.0 | 4.0 | 0.22 | 3.16 | 0.52 | 99 | 1009.1 |
| 20260506061525 | 43 | 119 | 1.0 | 3.0 | 0.24 | 3.15 | 0.51 | 99 | 1009.0 |
| 20260506061017 | 43 | 336 | 2.0 | 3.0 | 0.26 | 3.14 | 0.50 | 99 | 1008.7 |
| 20260506060529 | 43 | 215 | 1.0 | 3.0 | 0.28 | 3.14 | 0.50 | 99 | 1008.7 |
| 20260506051026 | 44 | 173 | 1.0 | 2.0 | 0.23 | 2.88 | 0.24 | 99 | 1009.1 |
| 20260506050518 | 44 | 124 | 2.0 | 3.0 | 0.21 | 2.86 | 0.22 | 99 | 1009.1 |
| 20260506045031 | 44 | 46 | 1.0 | 4.0 | 0.21 | 2.84 | 0.20 | 99 | 1008.9 |
| 20260506044523 | 44 | 122 | 1.0 | 4.0 | 0.21 | 2.84 | 0.20 | 99 | 1009.0 |
| 20260506044033 | 44 | 0.0 | 2.0 | 0.21 | 2.83 | 0.19 | 99 | 1009.0 | |
| 20260506043525 | 44 | 132 | 2.0 | 4.0 | 0.19 | 2.80 | 0.16 | 99 | 1009.1 |
| 20260506043019 | 44 | 144 | 2.0 | 3.0 | 0.17 | 2.78 | 0.14 | 99 | 1009.1 |
| 20260506042528 | 44 | 103 | 2.0 | 3.0 | 0.14 | 2.75 | 0.11 | 99 | 1009.3 |
| 20260506042020 | 44 | 90 | 1.0 | 3.0 | 0.11 | 2.72 | 0.08 | 99 | 1009.5 |
| 20260506041524 | 44 | 126 | 2.0 | 4.0 | 0.07 | 2.68 | 0.04 | 99 | 1009.4 |
| 20260506041023 | 44 | 106 | 1.0 | 4.0 | 0.05 | 2.65 | 0.01 | 99 | 1008.9 |
| 20260506040522 | 45 | 101 | 3.0 | 6.0 | 0.06 | 2.65 | 0.01 | 99 | 1008.9 |
| 20260506040029 | 45 | 104 | 2.0 | 4.0 | 0.06 | 2.64 | 0.00 | 99 | 1009.0 |
| 20260506035518 | 45 | 146 | 2.0 | 3.0 | 0.08 | 2.64 | 2.64 | 99 | 1009.0 |
| 20260506035016 | 45 | 83 | 2.0 | 3.0 | 0.08 | 2.63 | 2.63 | 99 | 1008.8 |
| 20260506034528 | 45 | 105 | 3.0 | 5.0 | 0.09 | 2.63 | 2.63 | 99 | 1008.6 |
| 20260506034018 | 45 | 145 | 2.0 | 5.0 | 0.12 | 2.62 | 2.62 | 99 | 1008.6 |
| 20260506033528 | 45 | 103 | 2.0 | 5.0 | 0.13 | 2.61 | 2.61 | 99 | 1008.5 |
| 20260506033020 | 45 | 113 | 3.0 | 6.0 | 0.16 | 2.61 | 2.61 | 99 | 1008.5 |
| 20260506032530 | 46 | 101 | 3.0 | 5.0 | 0.19 | 2.61 | 2.61 | 99 | 1008.6 |
| 20260506032022 | 46 | 117 | 3.0 | 6.0 | 0.23 | 2.61 | 2.61 | 99 | 1008.6 |
| 20260506031533 | 46 | 112 | 3.0 | 5.0 | 0.24 | 2.61 | 2.61 | 99 | 1008.7 |
| 20260506031025 | 46 | 118 | 2.0 | 4.0 | 0.24 | 2.60 | 2.60 | 99 | 1008.7 |
| 20260506030517 | 46 | 102 | 4.0 | 6.0 | 0.24 | 2.59 | 2.59 | 99 | 1008.7 |
| 20260506030027 | 46 | 113 | 4.0 | 6.0 | 0.24 | 2.58 | 2.58 | 99 | 1009.2 |
| 20260506025519 | 46 | 110 | 4.0 | 6.0 | 0.22 | 2.56 | 2.56 | 99 | 1009.3 |
| 20260506025029 | 46 | 108 | 2.0 | 3.0 | 0.23 | 2.55 | 2.55 | 99 | 1009.3 |
| 20260506024521 | 46 | 112 | 2.0 | 3.0 | 0.23 | 2.54 | 2.54 | 99 | 1009.5 |
| 20260506024031 | 46 | 103 | 2.0 | 4.0 | 0.21 | 2.50 | 2.50 | 99 | 1009.5 |
| 20260506023524 | 46 | 114 | 2.0 | 3.0 | 0.21 | 2.48 | 2.48 | 99 | 1009.5 |
| 20260506023016 | 46 | 100 | 2.0 | 4.0 | 0.21 | 2.45 | 2.45 | 99 | 1009.5 |
| 20260506022526 | 47 | 146 | 2.0 | 4.0 | 0.21 | 2.42 | 2.42 | 99 | 1009.6 |
| 20260506022019 | 47 | 94 | 2.0 | 4.0 | 0.20 | 2.38 | 2.38 | 99 | 1009.7 |
| 20260506021529 | 47 | 79 | 1.0 | 5.0 | 0.23 | 2.37 | 2.37 | 99 | 1009.6 |
| 20260506021021 | 47 | 313 | 3.0 | 5.0 | 0.26 | 2.36 | 2.36 | 99 | 1009.3 |
| 20260506020531 | 47 | 225 | 3.0 | 5.0 | 0.30 | 2.35 | 2.35 | 99 | 1009.3 |
| 20260506020021 | 47 | 125 | 3.0 | 5.0 | 0.32 | 2.34 | 2.34 | 99 | 1009.3 |
| 20260506015531 | 48 | 41 | 1.0 | 2.0 | 0.35 | 2.34 | 2.34 | 99 | 1009.3 |
| 20260506015023 | 48 | 144 | 2.0 | 3.0 | 0.35 | 2.32 | 2.32 | 99 | 1009.4 |
| 20260506014517 | 48 | 109 | 1.0 | 4.0 | 0.35 | 2.31 | 2.31 | 99 | 1009.5 |
| 20260506014025 | 48 | 108 | 1.0 | 3.0 | 0.34 | 2.29 | 2.29 | 99 | 1009.5 |
| 20260506013518 | 48 | 108 | 1.0 | 4.0 | 0.33 | 2.27 | 2.27 | 99 | 1009.5 |
| 20260506013022 | 48 | 209 | 1.0 | 3.0 | 0.31 | 2.24 | 2.24 | 99 | 1009.5 |
| 20260506012520 | 48 | 139 | 1.0 | 2.0 | 0.29 | 2.21 | 2.21 | 99 | 1009.4 |
| 20260506012018 | 48 | 169 | 1.0 | 3.0 | 0.29 | 2.18 | 2.18 | 99 | 1009.3 |
| 20260506011516 | 48 | 154 | 2.0 | 5.0 | 0.28 | 2.14 | 2.14 | 99 | 1009.3 |
| 20260506011032 | 48 | 275 | 2.0 | 4.0 | 0.30 | 2.10 | 2.10 | 99 | 1009.1 |
| 20260506010524 | 49 | 126 | 2.0 | 5.0 | 0.30 | 2.05 | 2.05 | 99 | 1009.1 |
| 20260506010017 | 49 | 302 | 2.0 | 5.0 | 0.32 | 2.02 | 2.02 | 99 | 1009.0 |
| 20260506005527 | 49 | 90 | 1.0 | 2.0 | 0.36 | 1.99 | 1.99 | 99 | 1008.9 |
| 20260506005020 | 49 | 133 | 2.0 | 4.0 | 0.43 | 1.97 | 1.97 | 99 | 1008.9 |
| 20260506004529 | 49 | 113 | 2.0 | 4.0 | 0.54 | 1.96 | 1.96 | 99 | 1008.8 |
| 20260506004021 | 49 | 107 | 2.0 | 4.0 | 0.64 | 1.95 | 1.95 | 99 | 1008.8 |
| 20260506003532 | 50 | 258 | 4.0 | 6.0 | 0.76 | 1.94 | 1.94 | 99 | 1008.7 |
| 20260506003024 | 50 | 225 | 3.0 | 5.0 | 0.93 | 1.93 | 1.93 | 99 | 1008.7 |
| 20260506002516 | 50 | 99 | 2.0 | 3.0 | 1.04 | 1.92 | 1.92 | 99 | 1008.6 |
| 20260506002026 | 50 | 135 | 3.0 | 3.0 | 1.10 | 1.89 | 1.89 | 99 | 1008.4 |
| 20260506001518 | 51 | 115 | 2.0 | 4.0 | 1.12 | 1.86 | 1.86 | 99 | 1008.4 |
| 20260506001028 | 51 | 149 | 2.0 | 3.0 | 1.09 | 1.80 | 1.80 | 99 | 1008.3 |
| 20260506000521 | 51 | 261 | 2.0 | 4.0 | 1.06 | 1.75 | 1.75 | 99 | 1008.3 |
| 20260506000031 | 52 | 39 | 2.0 | 5.0 | 1.03 | 1.70 | 1.70 | 99 | 1008.3 |
| 20260505235523 | 52 | 211 | 1.0 | 2.0 | 0.98 | 1.63 | 1.63 | 99 | 1008.3 |
| 20260505235016 | 53 | 163 | 3.0 | 4.0 | 0.90 | 1.54 | 1.54 | 99 | 1008.3 |
| 20260505234525 | 53 | 113 | 3.0 | 5.0 | 0.79 | 1.42 | 1.42 | 99 | 1008.2 |
| 20260505234017 | 54 | 133 | 3.0 | 7.0 | 0.68 | 1.31 | 1.31 | 99 | 1008.2 |
| 20260505233523 | 56 | 313 | 4.0 | 9.0 | 0.56 | 1.18 | 1.18 | 99 | 1007.7 |
| 20260505233032 | 58 | 285 | 5.0 | 7.0 | 0.38 | 1.00 | 1.00 | 99 | 1007.7 |
| 20260505232525 | 58 | 246 | 4.0 | 5.0 | 0.26 | 0.88 | 0.88 | 99 | 1007.8 |
| 20260505232017 | 58 | 239 | 3.0 | 4.0 | 0.17 | 0.79 | 0.79 | 99 | 1007.8 |
| 20260505231527 | 58 | 247 | 3.0 | 5.0 | 0.12 | 0.74 | 0.74 | 99 | 1007.8 |
| 20260505231019 | 58 | 232 | 2.0 | 5.0 | 0.10 | 0.71 | 0.71 | 99 | 1008.0 |
| 20260505230529 | 58 | 242 | 3.0 | 6.0 | 0.08 | 0.69 | 0.69 | 99 | 1008.0 |
| 20260505230021 | 58 | 233 | 4.0 | 5.0 | 0.06 | 0.67 | 0.67 | 99 | 1008.2 |
| 20260505225525 | 58 | 237 | 3.0 | 5.0 | 0.04 | 0.65 | 0.65 | 99 | 1008.2 |
| 20260505225023 | 58 | 237 | 4.0 | 5.0 | 0.04 | 0.64 | 0.64 | 99 | 1008.3 |
| 20260505224516 | 58 | 235 | 4.0 | 7.0 | 0.03 | 0.63 | 0.63 | 99 | 1008.4 |
| 20260505224020 | 58 | 227 | 4.0 | 7.0 | 0.03 | 0.63 | 0.63 | 99 | 1008.4 |
| 20260505223519 | 58 | 248 | 4.0 | 5.0 | 0.03 | 0.62 | 0.62 | 99 | 1008.3 |
| 20260505223016 | 58 | 250 | 3.0 | 5.0 | 0.04 | 0.62 | 0.62 | 99 | 1008.3 |
| 20260505222521 | 58 | 225 | 4.0 | 6.0 | 0.04 | 0.62 | 0.62 | 99 | 1008.3 |
| 20260505222030 | 58 | 233 | 4.0 | 6.0 | 0.06 | 0.62 | 0.62 | 99 | 1008.3 |